ENVISAT (27386 NORAD) Tracking and Keplerian Element Data

This shows tracking and keplerian element data for the satellite.

Feedback or suggestion? Click here.




ElementValue
Catalog27386
NameENVISAT
Epoch Orbit4164
Epoch Day16.15908966
Epoch Year2022
RAAN4.5491
Inclination98.1676
Eccentricity0.0001203
Argument of Perigee85.8153
Mean Anonmoly16.5002
Mean Motion14.38068732
Decay Rate1.05E-06
L11 27386U 02009A 22016.15908966 .00000105 00000+0 48112-4 0 9997
L22 27386 98.1676 4.5491 0001203 85.8153 16.5002 14.38068732 41645

Live tracking and technical data element details for ENVISAT (NORAD 27386). ENVISAT can be tracked NOW for your location showing map with azimuth and elevation plus other details from your city location.

Track the satellite on the map from your city or location and see movement details for azimuth, elevation, latitude, longitude, range, height, and movement on the map or in text.







IsCatalogInMostPopularTable: catalog: 27386, numindb: 383
Update: records affected: 1



GetName: 27386 ENVISAT

Hit Count: updated at: Mon, 17 Jan 2022 01:46:24 GMT